SCP
-0 -0 -0 -0 0 0 0 0 -0 -0 -0 -0 -0 -0 -0 -0 -0 -0 -0 -0 0 0 0 0 0 0 0 0 0 0 0 0 0 0 0 0 0 0 0 0 0 0 0 0 0 0 0 0 0 0 0 0 0 0
-0 -0 -0 -0 -0 0 0 0 -0 -0 -0 -0 -0 0 0 -0 -0 0 -0 0 0 0 0 0 0 0 0 0 0 0 0 0 0 0 0 0 0 0 0 0 0 0 0 0 0 0 0 0 0 0 0 0 0 0
-0 -0 -0 -0 -0 0 0 -0 -0 0 -0 -0 0 0 0 -0 -0 0 0 0 0 0 0 0 0 0 0 0 0 0 0 0 0 0 0 0 0 0 0 0 0 0 0 0 0 0 0 0 0 0 0 0 0 0
-0 -0 -0 -0 -0 0 0 0 -0 -0 -0 0 -0 -0 -0 -0 0 0 0 0 0 0 0 0 0 0 0 0 0 0 0 0 0 0 0 0 0 0 0 0 0 0 0 0 0 0 0 0 0 0 0 0 0 0
-0 -0 -0 -0 -0 0 0 0 -0 -0 -0 0 -0 -0 -0 0 0 0 0 0 0 0 0 0 0 0 0 0 0 0 0 0 0 0 0 0 0 0 0 0 0 0 0 0 0 0 0 0 0 0 0 0 0 0
-0 -0 -0 -0 -0 -0 0 0 0 -0 -0 0 0 -0 0 0 0 0 0 0 0 0 0 0 0 0 0 0 0 0 0 0 0 0 0 0 0 0 0 0 0 0 0 0 0 -0 0 0 0 0 0 0 0 0
-0 -0 -0 -0 -0 -0 -0 -0 -0 0 0 0 0 0 0 0 0 0 0 0 0 0 0 0 0 0 0 0 0 0 0 0 0 0 0 0 0 0 0 0 0 0 0 0 0 0 -0 -0 -0 0 0 0 0 0
0 -0 -0 -0 -0 -0 -0 -0 -0 -0 -0 0 0 0 0 0 0 0 0 0 0 0 0 0 0 0 0 0 0 0 0 0 0 0 0 0 0 0 0 0 0 0 0 0 0 0 -0 -0 -0 -0 -0 -0 0 0
0 0 0 -0 -0 -0 -0 -0 -0 0 0 -0 0 0 0 0 0 0 0 0 0 0 0 0 0 0 0 0 0 -0 0 0 0 0 0 0 0 0 0 0 0 0 0 0 0 0 0 0 0 -0 -0 -0 -0 -0
0 0 0 -0 -0 -0 -0 -0 -0 -0 -0 0 0 0 0 0 0 0 0 0 0 0 0 0 0 0 0 0 0 0 0 0 0 0 0 0 0 0 0 0 0 0 0 0 0 0 0 0 0 0 0 0 -0 -0
0 0 0 0 -0 -0 -0 0 0 -0 0 0 0 0 0 0 0 0 0 0 0 0 0 0 0 0 0 0 0 0 0 0 0 0 0 0 0 0 0 0 0 0 0 0 0 0 0 0 0 0 0 0 0 0
0 0 0 0 0 0 0 0 0 0 0 0 0 0 0 0 0 0 0 0 0 0 0 0 0 0 0 0 0 0 0 0 0 0 0 0 0 0 0 0 0 0 0 0 0 0 0 0 0 0 0 0 0 0
0 0 0 0 0 0 0 0 0 0 0 0 0 0 0 0 0 0 0 0 0 0 0 0 0 0 0 0 0 0 0 0 0 0 0 0 0 0 0 0 0 0 0 0 0 0 0 0 0 0 0 0 0 0
0 0 0 0 0 0 0 0 0 0 0 0 0 0 0 0 0 0 0 0 0 0 0 0 0 0 0 0 0 0 0 0 0 0 0 0 0 0 0 0 0 0 0 0 0 0 0 0 0 0 0 0 -0 0
0 0 0 0 0 0 0 0 0 0 0 0 0 0 0 0 0 0 0 0 0 0 0 0 0 0 0 0 0 0 0 0 0 0 0 0 0 0 0 0 0 0 0 0 0 0 0 0 0 0 0 0 0 -0
0 0 0 0 0 0 0 0 0 0 0 0 0 0 0 0 0 0 0 0 0 0 0 0 0 0 0 0 0 0 0 0 0 0 0 0 0 0 0 0 0 0 0 0 0 0 0 0 0 0 0 0 0 -0
0 0 0 0 0 0 0 0 0 0 0 0 0 0 0 0 0 0 0 0 0 0 0 0 0 0 0 0 0 0 0 0 0 0 0 0 0 0 0 0 0 0 0 0 0 0 0 0 0 -0 0 0 0 0
0 0 0 0 0 0 0 0 0 0 0 0 0 0 0 0 0 0 0 0 0 0 0 0 0 0 0 0 0 0 0 0 0 0 0 0 0 0 0 0 0 0 0 0 0 0 0 0 0 0 -0 0 0 0
0 0 0 0 0 0 0 0 0 0 0 0 0 0 0 0 0 0 0 0 0 0 0 0 0 0 0 0 0 0 0 0 0 0 0 0 0 0 0 0 0 0 0 0 0 0 0 0 0 0 -0 0 -0 0
0 0 0 0 0 0 0 0 0 0 0 0 0 0 0 0 0 0 0 0 0 0 0 0 0 0 0 0 0 0 0 0 0 0 0 0 0 0 0 0 0 0 0 0 0 0 0 0 0 0 -0 0 -0 0
0 0 0 0 0 0 0 0 0 0 0 0 0 0 0 0 0 0 0 0 0 0 0 0 0 0 0 0 0 0 0 0 0 0 0 0 0 0 0 0 0 0 0 -0 -0 0 0 0 0 -0 -0 -0 -0 0
0 0 0 0 0 0 0 0 0 0 0 0 0 0 0 0 0 0 0 0 0 0 0 0 0 0 0 0 0 0 0 0 0 0 0 0 0 0 0 0 0 0 0 0 -0 -0 0 0 0 0 -0 -0 0 0
0 0 0 0 0 0 0 0 0 0 0 0 0 0 0 0 0 0 0 0 0 0 0 0 0 0 0 0 0 0 0 0 0 0 0 0 0 0 0 0 0 0 0 0 0 0 0 0 0 0 -0 -0 0 0
0 0 0 0 0 0 0 0 0 0 0 0 0 0 0 0 0 0 0 0 0 0 0 0 0 0 0 0 0 0 0 0 0 0 0 0 0 0 0 0 0 0 0 0 0 0 0 0 0 0 -0 0 0 0
0 0 0 0 0 0 0 0 0 0 0 0 0 0 0 0 0 0 0 0 0 0 0 0 0 0 0 0 0 0 0 0 0 0 0 0 0 0 0 0 0 0 0 0 0 0 0 0 0 0 0 0 0 0
0 0 0 0 0 0 0 -0 0 0 0 0 0 0 0 0 0 0 0 0 0 0 0 0 0 0 0 0 0 0 0 0 0 0 0 0 0 0 0 0 0 0 0 0 0 0 0 0 0 0 0 0 0 0
0 0 0 0 0 0 0 -0 0 0 0 0 0 0 0 0 0 0 0 0 0 0 0 0 0 0 0 0 0 0 0 0 0 0 0 0 0 0 0 0 0 0 0 0 0 0 0 0 0 0 0 0 0 0
0 0 0 0 0 0 0 0 0 0 0 0 0 0 0 0 0 0 0 0 0 0 0 0 0 0 0 0 0 0 0 0 0 0 0 0 0 0 0 0 0 0 0 0 0 0 0 0 0 0 0 0 0 0
0 0 0 -0 -0 -0 -0 -0 0 0 0 0 0 0 0 0 0 0 0 0 0 0 0 0 0 0 0 0 0 0 0 0 0 0 0 0 0 0 0 0 0 0 0 0 0 0 0 0 0 0 0 0 0 0
0 0 0 -0 0 -0 -0 -0 0 -0 0 -0 0 0 0 0 0 0 0 0 0 0 0 0 0 0 0 0 0 0 0 0 0 0 0 0 0 0 0 0 0 0 0 0 0 0 0 0 0 0 0 0 0 0
0 0 0 -0 -0 -0 -0 0 -0 -0 -0 -0 -0 -0 0 0 0 0 0 0 0 0 0 0 0 0 0 0 0 0 0 0 0 0 0 0 0 0 0 0 0 0 0 0 0 0 0 0 0 0 0 0 0 0
0 -0 -0 0 0 0 0 -0 -0 0 0 0 0 0 0 0 0 0 0 0 0 0 0 0 0 0 0 0 0 0 0 0 0 0 0 0 0 0 0 0 0 0 0 0 0 0 0 0 0 0 0 0 0 0
0 0 0 0 0 0 0 -0 0 0 0 0 0 0 0 0 0 0 0 0 0 0 0 0 0 0 0 0 0 0 0 0 0 0 0 0 0 0 0 0 0 0 0 0 0 0 0 0 0 0 0 0 0 0
Wind_Speed_500mb
46 45 46 46 47 49 50 51 51 51 51 51 53 54 52 49 48 44 38 44 34 7 6 7 2 5 10 6 1 13 10 10 10 10 5 4 3 5 7 6 4 12 12 9 6 7 12 27 11 6 14 39 46 45
48 45 46 47 48 49 50 49 50 51 51 51 51 53 54 53 49 42 37 45 36 5 5 10 9 12 19 14 14 7 5 6 2 7 2 1 5 6 2 5 10 0 5 5 10 7 3 15 22 15 22 31 40 57
49 48 46 47 48 49 49 49 49 50 51 53 54 53 50 47 45 38 34 40 31 14 7 14 23 25 21 19 14 10 6 5 3 1 9 3 4 4 3 6 6 7 9 3 4 7 12 8 29 44 36 40 51 63
51 51 48 47 48 49 49 49 49 49 50 52 55 56 53 44 39 30 24 31 44 9 6 4 10 33 34 35 7 29 34 13 18 13 6 5 3 8 6 6 3 7 15 6 7 8 32 27 47 49 45 45 50 59
49 53 52 51 50 51 51 50 49 49 49 51 53 55 52 44 33 23 9 16 33 24 7 17 5 19 28 22 23 28 13 11 18 7 3 7 7 3 4 2 6 10 7 4 8 22 12 31 49 42 51 55 55 55
47 53 57 58 56 54 54 54 53 52 51 53 56 57 52 36 21 15 4 4 26 34 11 6 6 7 20 20 10 17 16 5 7 9 10 10 13 14 5 6 16 17 14 15 10 23 35 44 35 35 42 49 55 56
47 52 56 59 60 59 58 58 56 55 55 58 60 60 44 21 10 3 1 13 28 31 6 13 17 9 24 15 12 16 14 10 11 8 11 11 14 21 6 12 24 34 48 35 24 26 30 38 43 43 36 42 49 52
51 53 57 60 62 62 61 61 60 60 60 63 62 51 24 8 2 1 4 24 26 5 3 2 9 12 22 13 13 15 14 9 7 9 7 8 4 5 10 20 37 50 48 41 28 20 33 41 45 50 48 38 47 53
47 50 55 58 62 64 64 64 63 62 65 66 58 29 7 2 1 7 22 21 6 0 2 3 3 6 16 12 12 11 9 5 7 3 7 3 4 11 16 32 43 50 49 37 30 31 31 31 42 46 46 34 38 46
44 46 54 61 65 65 65 65 64 65 68 61 31 10 4 11 25 14 3 3 3 3 6 7 7 6 6 6 6 8 5 4 5 8 8 5 8 56 60 54 44 39 41 41 29 28 35 31 31 34 36 30 27 39
44 49 54 62 64 65 62 59 61 67 68 53 31 9 20 17 7 2 2 1 2 5 9 8 17 6 9 4 7 7 4 3 5 9 5 6 8 16 44 49 50 37 30 26 25 25 18 16 20 28 29 17 15 12
49 52 56 57 59 61 54 48 55 61 55 58 38 33 15 5 3 4 4 6 4 7 8 9 9 13 9 10 5 8 6 2 12 2 2 7 9 28 30 34 35 32 28 23 23 24 23 24 23 13 12 25 12 2
53 55 56 57 54 52 45 45 51 56 63 36 8 8 7 2 6 7 7 5 4 5 7 10 9 8 7 8 8 3 6 11 4 5 9 11 11 22 29 35 38 35 29 22 16 14 17 18 15 14 3 6 22 7
53 55 55 55 50 42 39 44 51 55 39 10 9 12 5 6 8 8 6 5 9 12 30 24 12 9 8 4 8 7 10 2 8 9 13 8 25 34 27 39 47 45 35 26 21 12 5 12 18 7 6 7 12 18
53 55 53 50 39 33 40 46 48 46 10 9 4 9 10 13 13 16 20 26 27 28 24 15 14 11 7 6 8 4 5 12 14 11 8 22 21 28 38 50 53 45 42 34 21 9 5 9 12 22 12 7 15 12
51 50 46 44 39 37 43 49 48 27 7 8 12 9 18 15 16 11 24 37 35 13 27 12 7 3 11 8 8 18 10 18 13 7 35 35 41 32 39 59 54 49 49 44 37 26 9 9 14 16 18 24 20 29
45 38 41 42 41 40 45 43 12 6 9 10 15 26 38 41 38 39 33 44 41 26 6 7 8 21 4 9 9 10 28 36 54 39 37 42 46 51 52 58 53 51 50 50 41 30 18 9 16 18 14 26 29 39
41 36 36 38 43 44 32 8 7 9 14 19 15 19 19 36 49 54 60 57 42 18 12 11 14 12 13 13 28 40 65 76 73 76 79 81 81 83 76 65 49 38 51 57 54 39 27 19 22 23 20 13 37 45
33 29 25 30 34 30 11 5 7 11 17 19 27 39 37 49 61 58 56 55 53 51 16 11 12 10 18 32 45 84 84 83 85 88 87 88 87 91 98 94 88 72 63 68 68 52 39 32 32 35 24 22 30 31
26 20 23 22 20 11 10 9 9 13 13 13 32 35 40 48 54 56 56 56 41 13 12 9 12 53 67 93 104 94 83 98 91 81 72 74 79 86 95 95 84 83 74 49 67 55 47 45 43 41 37 30 29 25
18 15 17 19 18 11 12 9 11 12 20 15 33 40 40 41 43 50 47 17 11 11 12 39 69 88 102 108 102 70 50 66 62 54 63 64 63 59 74 84 90 81 85 84 74 60 59 63 65 48 43 36 28 22
12 14 18 15 8 7 12 12 14 22 15 21 29 17 21 20 17 12 24 6 11 23 29 66 91 97 98 86 65 37 50 39 32 34 35 33 27 25 41 62 77 74 73 71 69 62 73 67 61 44 41 30 27 26
13 10 7 5 6 7 11 11 9 8 7 8 12 11 11 10 11 26 8 10 19 47 74 83 90 93 92 92 48 54 35 38 33 36 36 29 15 10 27 44 54 62 64 67 61 55 59 57 47 43 34 26 30 33
7 6 5 5 7 10 10 7 9 10 9 8 6 10 10 10 19 7 6 10 42 80 81 97 102 93 89 80 71 57 55 43 28 35 26 24 28 23 21 31 42 55 58 55 50 48 48 46 49 42 36 30 38 37
5 5 6 8 8 6 6 7 8 6 6 5 6 9 9 11 5 6 5 16 61 81 80 97 100 93 84 77 70 53 46 48 59 22 28 28 35 33 29 29 35 42 49 50 50 47 47 44 41 36 38 50 45 39
5 8 12 7 6 8 6 6 5 5 6 6 8 14 9 5 5 8 6 35 73 85 87 82 81 80 82 81 72 62 56 57 50 46 32 24 27 34 36 41 44 42 40 44 51 50 45 41 41 47 52 49 44 37
6 8 14 13 10 10 12 17 21 12 7 6 7 8 6 6 7 8 23 58 72 73 75 78 75 69 68 72 58 48 49 48 50 46 33 33 35 34 37 39 40 46 46 43 44 44 47 49 49 49 51 46 43 41
14 8 9 5 9 14 8 7 6 6 7 9 6 6 5 7 7 14 50 60 62 59 64 60 67 69 46 56 69 63 53 47 53 62 69 65 55 46 42 44 48 50 51 53 54 50 48 47 45 43 43 47 44 44
11 11 10 13 14 14 14 18 12 12 9 7 4 5 10 15 43 68 39 36 46 50 49 69 66 60 46 19 26 50 76 73 68 70 69 66 61 55 51 48 47 46 45 46 43 37 36 38 43 49 52 49 47 53
11 19 9 8 8 10 15 25 19 25 23 28 29 43 61 64 34 30 34 28 29 33 47 53 55 57 61 57 41 24 30 58 67 64 63 61 58 53 49 55 56 54 48 45 47 51 48 49 49 46 50 53 55 55
8 14 10 12 14 23 33 33 41 49 55 58 50 49 51 42 34 15 18 17 19 24 35 45 47 49 53 53 55 52 36 25 22 45 60 63 65 65 63 53 41 35 37 41 44 53 56 58 56 56 54 56 60 65
14 19 11 7 14 24 39 16 11 10 11 10 10 11 9 10 12 12 11 13 13 13 22 32 36 40 43 48 54 55 56 45 38 34 34 34 34 29 32 35 37 47 50 52 54 55 55 56 57 59 60 59 55 49
13 17 17 13 11 10 9 10 8 8 11 9 11 15 21 11 11 9 11 11 8 9 18 25 24 31 35 37 42 49 56 47 36 39 41 44 44 43 44 46 46 44 43 42 42 41 39 36 36 38 38 37 34 31
Wind_Direction_500mb
11 9 8 7 7 7 8 9 9 9 11 11 9 9 11 12 13 13 13 11 4 309 341 138 50 47 22 352 287 325 353 349 10 49 51 302 293 308 327 286 243 184 167 197 94 153 256 355 22 110 286 322 328 324
10 7 7 6 5 6 5 6 5 4 5 6 6 6 4 3 7 9 12 0 0 4 315 308 106 334 329 339 266 287 271 257 255 72 1 346 330 348 356 267 341 286 208 211 170 195 164 67 100 24 5 358 343 333
7 6 4 4 4 4 3 1 1 0 359 359 358 358 359 360 2 5 8 10 9 4 56 91 63 44 16 332 255 249 254 287 269 238 165 175 265 130 279 269 296 310 16 82 63 214 352 142 27 2 353 347 353 355
5 3 2 2 1 0 359 358 357 355 353 352 351 349 350 354 354 359 11 23 26 10 43 196 74 40 37 28 306 247 250 266 309 269 194 147 190 189 240 252 197 254 336 331 284 335 354 178 355 351 346 343 345 352
3 2 1 359 357 356 356 355 353 351 348 346 344 341 341 341 341 343 360 31 27 25 288 290 270 33 38 35 36 36 26 286 265 241 160 225 222 158 238 33 255 207 201 121 245 305 281 294 319 327 327 334 339 340
356 358 359 357 355 353 353 351 350 347 344 343 340 335 332 330 333 335 294 345 359 356 309 323 318 1 21 42 22 20 13 326 266 236 224 225 221 196 198 229 257 240 209 295 246 304 309 317 326 322 316 322 326 328
348 350 352 353 353 351 349 347 347 345 342 341 338 334 333 337 329 312 345 322 332 335 316 318 336 334 350 347 353 358 356 309 252 239 224 220 217 191 161 231 239 251 281 282 281 289 303 310 315 322 307 307 310 315
341 341 344 347 348 346 345 345 345 344 342 341 338 333 344 4 84 260 285 323 333 355 335 61 280 329 357 330 327 335 316 291 247 269 252 213 200 176 243 236 232 248 259 261 260 267 292 299 300 303 308 289 293 303
329 333 338 340 342 341 340 341 343 343 342 341 337 327 323 357 306 297 311 323 330 29 207 118 130 279 342 328 312 310 328 328 295 245 251 167 220 222 229 238 238 242 240 251 281 280 267 274 287 293 300 274 280 290
322 329 334 335 335 338 337 334 339 342 342 344 339 332 290 312 320 306 264 271 261 232 224 209 202 259 293 307 309 315 309 270 314 258 301 200 253 246 247 245 254 256 255 269 265 254 241 251 276 285 293 263 266 283
323 325 323 328 329 334 335 332 335 342 347 354 337 293 307 312 316 291 298 354 304 278 218 231 218 246 263 197 229 230 266 260 288 266 171 260 266 241 251 246 242 237 227 225 234 240 257 280 275 276 298 232 249 281
313 315 322 327 328 330 332 331 333 340 344 330 310 297 319 333 318 30 299 311 211 245 219 205 243 237 257 243 216 223 227 86 249 252 211 254 252 242 231 216 211 212 206 207 218 221 224 238 261 277 291 206 250 244
313 314 319 320 323 327 325 325 328 331 335 332 337 304 313 298 24 200 211 262 294 247 251 241 253 230 236 252 254 183 232 237 307 229 231 234 275 232 223 220 197 180 171 170 178 194 220 231 251 253 341 235 224 96
304 310 315 318 320 322 322 322 323 330 341 317 341 301 185 253 248 204 211 201 320 283 310 285 269 240 227 203 230 228 240 357 250 237 233 239 250 259 231 200 193 188 190 188 186 181 224 256 257 276 311 10 314 232
299 306 314 321 324 322 319 316 317 321 305 273 242 248 239 251 272 289 290 290 297 308 308 296 257 242 236 255 212 239 250 240 222 228 220 245 282 291 233 206 202 207 198 195 198 210 268 320 298 256 280 337 339 314
299 305 314 319 322 323 317 314 316 313 240 243 241 256 257 282 285 283 298 292 308 309 324 269 263 269 244 220 195 212 216 226 229 186 243 269 274 291 263 217 216 215 209 202 208 225 250 327 312 319 260 253 312 336
300 307 310 313 317 323 319 315 304 248 241 234 248 252 262 276 273 282 292 293 298 299 222 232 231 223 278 241 236 223 243 259 271 264 253 244 253 256 256 237 225 227 225 214 205 210 231 278 306 322 311 239 244 283
300 304 306 310 319 329 325 312 273 262 255 251 256 276 272 277 283 291 295 301 287 263 231 228 256 203 232 250 259 265 271 272 272 267 261 255 248 238 232 224 230 247 238 229 215 214 235 259 282 299 318 267 232 266
299 303 301 304 319 331 301 260 254 268 259 276 268 284 285 290 294 293 294 295 290 281 263 247 250 235 240 258 265 273 280 282 278 275 267 259 249 237 229 228 229 226 241 226 218 219 239 258 270 281 289 287 253 249
303 304 305 307 312 317 283 266 249 269 275 291 291 292 293 289 296 300 302 298 290 254 220 233 236 258 268 273 275 277 282 284 284 279 273 264 252 239 231 225 225 219 219 226 218 221 234 248 267 269 269 273 268 252
310 303 298 303 302 255 266 287 261 261 288 281 291 301 297 293 295 294 295 311 215 216 238 251 277 289 292 292 296 305 292 292 293 305 290 280 276 241 231 219 217 215 209 218 228 232 239 248 256 258 262 260 256 232
291 299 303 305 265 265 262 258 265 289 277 274 293 274 279 290 284 284 316 229 245 256 273 293 299 301 305 313 318 329 323 331 340 340 336 337 332 228 215 210 204 206 205 212 213 211 225 235 243 245 239 244 227 219
297 308 304 264 269 254 265 273 264 263 271 275 294 281 270 278 280 317 271 255 272 317 322 323 326 332 335 340 356 358 11 8 4 2 360 7 33 93 196 193 192 189 187 189 193 210 225 231 228 213 228 218 213 198
301 282 257 255 241 272 297 267 254 274 279 279 282 280 291 279 311 276 270 274 318 324 332 341 340 338 344 354 2 359 4 355 12 33 31 48 71 89 133 160 171 182 189 197 197 198 206 203 189 203 207 200 194 194
254 228 228 261 246 264 279 282 262 279 263 266 261 281 276 304 314 293 282 295 327 329 336 345 347 345 346 357 12 14 19 20 23 46 50 78 91 102 116 138 158 163 169 176 184 184 178 187 195 186 186 184 185 183
247 218 201 231 238 193 238 264 251 293 289 273 265 279 299 340 296 268 265 322 326 328 335 337 341 341 347 0 2 14 26 27 35 46 55 67 92 110 127 136 144 156 165 168 174 181 181 180 179 177 177 178 179 174
257 241 230 242 257 283 280 268 276 260 251 256 270 294 343 303 269 262 303 322 326 332 340 346 356 3 6 16 29 37 37 42 47 52 59 74 78 91 111 131 150 155 158 164 167 169 169 167 166 170 172 171 168 167
240 253 216 236 230 243 257 278 260 247 249 249 266 269 262 222 261 296 320 317 325 329 339 356 2 14 39 44 46 47 53 57 67 75 69 68 70 79 88 97 100 105 116 127 134 141 152 160 165 170 169 162 167 167
237 234 234 250 244 235 235 211 237 237 231 247 241 269 265 261 285 302 317 319 327 336 347 355 5 9 23 47 36 42 52 60 60 59 63 64 69 71 74 76 90 103 106 112 116 125 141 146 150 153 153 154 149 142
247 219 231 246 233 235 241 215 238 253 264 273 275 276 285 294 309 311 308 322 321 337 349 355 4 11 22 35 42 46 65 72 65 59 69 71 71 79 91 94 94 96 101 103 107 116 118 119 123 128 132 135 137 140
240 205 227 240 258 258 269 281 280 280 277 276 279 267 270 290 314 296 295 310 315 349 0 5 22 32 36 37 38 47 52 58 71 81 78 81 66 80 99 99 91 88 102 112 118 118 118 120 121 125 129 132 135 134
209 212 216 243 268 289 307 281 272 270 271 261 269 242 266 273 283 294 331 317 324 0 24 17 26 43 47 39 45 38 37 37 54 74 79 80 87 82 76 83 97 106 111 115 117 119 120 121 122 126 131 135 141 147
227 235 236 266 274 279 288 281 271 269 241 250 251 242 239 234 260 282 299 310 292 357 21 24 30 37 50 42 41 40 46 53 71 72 71 72 75 75 78 88 95 99 104 106 107 108 112 118 122 128 134 139 142 145
Wind_Speed_850mb
46 45 46 46 47 49 50 51 51 51 51 51 53 54 52 49 48 44 38 44 34 7 6 7 2 5 10 6 1 13 10 10 10 10 5 4 3 5 7 6 4 12 12 9 6 7 12 27 11 6 14 39 46 45
48 45 46 47 48 49 50 49 50 51 51 51 51 53 54 53 49 42 37 45 36 5 5 10 9 12 19 14 14 7 5 6 2 7 2 1 5 6 2 5 10 0 5 5 10 7 3 15 22 15 22 31 40 57
49 48 46 47 48 49 49 49 49 50 51 53 54 53 50 47 45 38 34 40 31 14 7 14 23 25 21 19 14 10 6 5 3 1 9 3 4 4 3 6 6 7 9 3 4 7 12 8 29 44 36 40 51 63
51 51 48 47 48 49 49 49 49 49 50 52 55 56 53 44 39 30 24 31 44 9 6 4 10 33 34 35 7 29 34 13 18 13 6 5 3 8 6 6 3 7 15 6 7 8 32 27 47 49 45 45 50 59
49 53 52 51 50 51 51 50 49 49 49 51 53 55 52 44 33 23 9 16 33 24 7 17 5 19 28 22 23 28 13 11 18 7 3 7 7 3 4 2 6 10 7 4 8 22 12 31 49 42 51 55 55 55
47 53 57 58 56 54 54 54 53 52 51 53 56 57 52 36 21 15 4 4 26 34 11 6 6 7 20 20 10 17 16 5 7 9 10 10 13 14 5 6 16 17 14 15 10 23 35 44 35 35 42 49 55 56
47 52 56 59 60 59 58 58 56 55 55 58 60 60 44 21 10 3 1 13 28 31 6 13 17 9 24 15 12 16 14 10 11 8 11 11 14 21 6 12 24 34 48 35 24 26 30 38 43 43 36 42 49 52
51 53 57 60 62 62 61 61 60 60 60 63 62 51 24 8 2 1 4 24 26 5 3 2 9 12 22 13 13 15 14 9 7 9 7 8 4 5 10 20 37 50 48 41 28 20 33 41 45 50 48 38 47 53
47 50 55 58 62 64 64 64 63 62 65 66 58 29 7 2 1 7 22 21 6 0 2 3 3 6 16 12 12 11 9 5 7 3 7 3 4 11 16 32 43 50 49 37 30 31 31 31 42 46 46 34 38 46
44 46 54 61 65 65 65 65 64 65 68 61 31 10 4 11 25 14 3 3 3 3 6 7 7 6 6 6 6 8 5 4 5 8 8 5 8 56 60 54 44 39 41 41 29 28 35 31 31 34 36 30 27 39
44 49 54 62 64 65 62 59 61 67 68 53 31 9 20 17 7 2 2 1 2 5 9 8 17 6 9 4 7 7 4 3 5 9 5 6 8 16 44 49 50 37 30 26 25 25 18 16 20 28 29 17 15 12
49 52 56 57 59 61 54 48 55 61 55 58 38 33 15 5 3 4 4 6 4 7 8 9 9 13 9 10 5 8 6 2 12 2 2 7 9 28 30 34 35 32 28 23 23 24 23 24 23 13 12 25 12 2
53 55 56 57 54 52 45 45 51 56 63 36 8 8 7 2 6 7 7 5 4 5 7 10 9 8 7 8 8 3 6 11 4 5 9 11 11 22 29 35 38 35 29 22 16 14 17 18 15 14 3 6 22 7
53 55 55 55 50 42 39 44 51 55 39 10 9 12 5 6 8 8 6 5 9 12 30 24 12 9 8 4 8 7 10 2 8 9 13 8 25 34 27 39 47 45 35 26 21 12 5 12 18 7 6 7 12 18
53 55 53 50 39 33 40 46 48 46 10 9 4 9 10 13 13 16 20 26 27 28 24 15 14 11 7 6 8 4 5 12 14 11 8 22 21 28 38 50 53 45 42 34 21 9 5 9 12 22 12 7 15 12
51 50 46 44 39 37 43 49 48 27 7 8 12 9 18 15 16 11 24 37 35 13 27 12 7 3 11 8 8 18 10 18 13 7 35 35 41 32 39 59 54 49 49 44 37 26 9 9 14 16 18 24 20 29
45 38 41 42 41 40 45 43 12 6 9 10 15 26 38 41 38 39 33 44 41 26 6 7 8 21 4 9 9 10 28 36 54 39 37 42 46 51 52 58 53 51 50 50 41 30 18 9 16 18 14 26 29 39
41 36 36 38 43 44 32 8 7 9 14 19 15 19 19 36 49 54 60 57 42 18 12 11 14 12 13 13 28 40 65 76 73 76 79 81 81 83 76 65 49 38 51 57 54 39 27 19 22 23 20 13 37 45
33 29 25 30 34 30 11 5 7 11 17 19 27 39 37 49 61 58 56 55 53 51 16 11 12 10 18 32 45 84 84 83 85 88 87 88 87 91 98 94 88 72 63 68 68 52 39 32 32 35 24 22 30 31
26 20 23 22 20 11 10 9 9 13 13 13 32 35 40 48 54 56 56 56 41 13 12 9 12 53 67 93 104 94 83 98 91 81 72 74 79 86 95 95 84 83 74 49 67 55 47 45 43 41 37 30 29 25
18 15 17 19 18 11 12 9 11 12 20 15 33 40 40 41 43 50 47 17 11 11 12 39 69 88 102 108 102 70 50 66 62 54 63 64 63 59 74 84 90 81 85 84 74 60 59 63 65 48 43 36 28 22
12 14 18 15 8 7 12 12 14 22 15 21 29 17 21 20 17 12 24 6 11 23 29 66 91 97 98 86 65 37 50 39 32 34 35 33 27 25 41 62 77 74 73 71 69 62 73 67 61 44 41 30 27 26
13 10 7 5 6 7 11 11 9 8 7 8 12 11 11 10 11 26 8 10 19 47 74 83 90 93 92 92 48 54 35 38 33 36 36 29 15 10 27 44 54 62 64 67 61 55 59 57 47 43 34 26 30 33
7 6 5 5 7 10 10 7 9 10 9 8 6 10 10 10 19 7 6 10 42 80 81 97 102 93 89 80 71 57 55 43 28 35 26 24 28 23 21 31 42 55 58 55 50 48 48 46 49 42 36 30 38 37
5 5 6 8 8 6 6 7 8 6 6 5 6 9 9 11 5 6 5 16 61 81 80 97 100 93 84 77 70 53 46 48 59 22 28 28 35 33 29 29 35 42 49 50 50 47 47 44 41 36 38 50 45 39
5 8 12 7 6 8 6 6 5 5 6 6 8 14 9 5 5 8 6 35 73 85 87 82 81 80 82 81 72 62 56 57 50 46 32 24 27 34 36 41 44 42 40 44 51 50 45 41 41 47 52 49 44 37
6 8 14 13 10 10 12 17 21 12 7 6 7 8 6 6 7 8 23 58 72 73 75 78 75 69 68 72 58 48 49 48 50 46 33 33 35 34 37 39 40 46 46 43 44 44 47 49 49 49 51 46 43 41
14 8 9 5 9 14 8 7 6 6 7 9 6 6 5 7 7 14 50 60 62 59 64 60 67 69 46 56 69 63 53 47 53 62 69 65 55 46 42 44 48 50 51 53 54 50 48 47 45 43 43 47 44 44
11 11 10 13 14 14 14 18 12 12 9 7 4 5 10 15 43 68 39 36 46 50 49 69 66 60 46 19 26 50 76 73 68 70 69 66 61 55 51 48 47 46 45 46 43 37 36 38 43 49 52 49 47 53
11 19 9 8 8 10 15 25 19 25 23 28 29 43 61 64 34 30 34 28 29 33 47 53 55 57 61 57 41 24 30 58 67 64 63 61 58 53 49 55 56 54 48 45 47 51 48 49 49 46 50 53 55 55
8 14 10 12 14 23 33 33 41 49 55 58 50 49 51 42 34 15 18 17 19 24 35 45 47 49 53 53 55 52 36 25 22 45 60 63 65 65 63 53 41 35 37 41 44 53 56 58 56 56 54 56 60 65
14 19 11 7 14 24 39 16 11 10 11 10 10 11 9 10 12 12 11 13 13 13 22 32 36 40 43 48 54 55 56 45 38 34 34 34 34 29 32 35 37 47 50 52 54 55 55 56 57 59 60 59 55 49
13 17 17 13 11 10 9 10 8 8 11 9 11 15 21 11 11 9 11 11 8 9 18 25 24 31 35 37 42 49 56 47 36 39 41 44 44 43 44 46 46 44 43 42 42 41 39 36 36 38 38 37 34 31
Wind_Direction_850mb
11 9 8 7 7 7 8 9 9 9 11 11 9 9 11 12 13 13 13 11 4 309 341 138 50 47 22 352 287 325 353 349 10 49 51 302 293 308 327 286 243 184 167 197 94 153 256 355 22 110 286 322 328 324
10 7 7 6 5 6 5 6 5 4 5 6 6 6 4 3 7 9 12 0 0 4 315 308 106 334 329 339 266 287 271 257 255 72 1 346 330 348 356 267 341 286 208 211 170 195 164 67 100 24 5 358 343 333
7 6 4 4 4 4 3 1 1 0 359 359 358 358 359 360 2 5 8 10 9 4 56 91 63 44 16 332 255 249 254 287 269 238 165 175 265 130 279 269 296 310 16 82 63 214 352 142 27 2 353 347 353 355
5 3 2 2 1 0 359 358 357 355 353 352 351 349 350 354 354 359 11 23 26 10 43 196 74 40 37 28 306 247 250 266 309 269 194 147 190 189 240 252 197 254 336 331 284 335 354 178 355 351 346 343 345 352
3 2 1 359 357 356 356 355 353 351 348 346 344 341 341 341 341 343 360 31 27 25 288 290 270 33 38 35 36 36 26 286 265 241 160 225 222 158 238 33 255 207 201 121 245 305 281 294 319 327 327 334 339 340
356 358 359 357 355 353 353 351 350 347 344 343 340 335 332 330 333 335 294 345 359 356 309 323 318 1 21 42 22 20 13 326 266 236 224 225 221 196 198 229 257 240 209 295 246 304 309 317 326 322 316 322 326 328
348 350 352 353 353 351 349 347 347 345 342 341 338 334 333 337 329 312 345 322 332 335 316 318 336 334 350 347 353 358 356 309 252 239 224 220 217 191 161 231 239 251 281 282 281 289 303 310 315 322 307 307 310 315
341 341 344 347 348 346 345 345 345 344 342 341 338 333 344 4 84 260 285 323 333 355 335 61 280 329 357 330 327 335 316 291 247 269 252 213 200 176 243 236 232 248 259 261 260 267 292 299 300 303 308 289 293 303
329 333 338 340 342 341 340 341 343 343 342 341 337 327 323 357 306 297 311 323 330 29 207 118 130 279 342 328 312 310 328 328 295 245 251 167 220 222 229 238 238 242 240 251 281 280 267 274 287 293 300 274 280 290
322 329 334 335 335 338 337 334 339 342 342 344 339 332 290 312 320 306 264 271 261 232 224 209 202 259 293 307 309 315 309 270 314 258 301 200 253 246 247 245 254 256 255 269 265 254 241 251 276 285 293 263 266 283
323 325 323 328 329 334 335 332 335 342 347 354 337 293 307 312 316 291 298 354 304 278 218 231 218 246 263 197 229 230 266 260 288 266 171 260 266 241 251 246 242 237 227 225 234 240 257 280 275 276 298 232 249 281
313 315 322 327 328 330 332 331 333 340 344 330 310 297 319 333 318 30 299 311 211 245 219 205 243 237 257 243 216 223 227 86 249 252 211 254 252 242 231 216 211 212 206 207 218 221 224 238 261 277 291 206 250 244
313 314 319 320 323 327 325 325 328 331 335 332 337 304 313 298 24 200 211 262 294 247 251 241 253 230 236 252 254 183 232 237 307 229 231 234 275 232 223 220 197 180 171 170 178 194 220 231 251 253 341 235 224 96
304 310 315 318 320 322 322 322 323 330 341 317 341 301 185 253 248 204 211 201 320 283 310 285 269 240 227 203 230 228 240 357 250 237 233 239 250 259 231 200 193 188 190 188 186 181 224 256 257 276 311 10 314 232
299 306 314 321 324 322 319 316 317 321 305 273 242 248 239 251 272 289 290 290 297 308 308 296 257 242 236 255 212 239 250 240 222 228 220 245 282 291 233 206 202 207 198 195 198 210 268 320 298 256 280 337 339 314
299 305 314 319 322 323 317 314 316 313 240 243 241 256 257 282 285 283 298 292 308 309 324 269 263 269 244 220 195 212 216 226 229 186 243 269 274 291 263 217 216 215 209 202 208 225 250 327 312 319 260 253 312 336
300 307 310 313 317 323 319 315 304 248 241 234 248 252 262 276 273 282 292 293 298 299 222 232 231 223 278 241 236 223 243 259 271 264 253 244 253 256 256 237 225 227 225 214 205 210 231 278 306 322 311 239 244 283
300 304 306 310 319 329 325 312 273 262 255 251 256 276 272 277 283 291 295 301 287 263 231 228 256 203 232 250 259 265 271 272 272 267 261 255 248 238 232 224 230 247 238 229 215 214 235 259 282 299 318 267 232 266
299 303 301 304 319 331 301 260 254 268 259 276 268 284 285 290 294 293 294 295 290 281 263 247 250 235 240 258 265 273 280 282 278 275 267 259 249 237 229 228 229 226 241 226 218 219 239 258 270 281 289 287 253 249
303 304 305 307 312 317 283 266 249 269 275 291 291 292 293 289 296 300 302 298 290 254 220 233 236 258 268 273 275 277 282 284 284 279 273 264 252 239 231 225 225 219 219 226 218 221 234 248 267 269 269 273 268 252
310 303 298 303 302 255 266 287 261 261 288 281 291 301 297 293 295 294 295 311 215 216 238 251 277 289 292 292 296 305 292 292 293 305 290 280 276 241 231 219 217 215 209 218 228 232 239 248 256 258 262 260 256 232
291 299 303 305 265 265 262 258 265 289 277 274 293 274 279 290 284 284 316 229 245 256 273 293 299 301 305 313 318 329 323 331 340 340 336 337 332 228 215 210 204 206 205 212 213 211 225 235 243 245 239 244 227 219
297 308 304 264 269 254 265 273 264 263 271 275 294 281 270 278 280 317 271 255 272 317 322 323 326 332 335 340 356 358 11 8 4 2 360 7 33 93 196 193 192 189 187 189 193 210 225 231 228 213 228 218 213 198
301 282 257 255 241 272 297 267 254 274 279 279 282 280 291 279 311 276 270 274 318 324 332 341 340 338 344 354 2 359 4 355 12 33 31 48 71 89 133 160 171 182 189 197 197 198 206 203 189 203 207 200 194 194
254 228 228 261 246 264 279 282 262 279 263 266 261 281 276 304 314 293 282 295 327 329 336 345 347 345 346 357 12 14 19 20 23 46 50 78 91 102 116 138 158 163 169 176 184 184 178 187 195 186 186 184 185 183
247 218 201 231 238 193 238 264 251 293 289 273 265 279 299 340 296 268 265 322 326 328 335 337 341 341 347 0 2 14 26 27 35 46 55 67 92 110 127 136 144 156 165 168 174 181 181 180 179 177 177 178 179 174
257 241 230 242 257 283 280 268 276 260 251 256 270 294 343 303 269 262 303 322 326 332 340 346 356 3 6 16 29 37 37 42 47 52 59 74 78 91 111 131 150 155 158 164 167 169 169 167 166 170 172 171 168 167
240 253 216 236 230 243 257 278 260 247 249 249 266 269 262 222 261 296 320 317 325 329 339 356 2 14 39 44 46 47 53 57 67 75 69 68 70 79 88 97 100 105 116 127 134 141 152 160 165 170 169 162 167 167
237 234 234 250 244 235 235 211 237 237 231 247 241 269 265 261 285 302 317 319 327 336 347 355 5 9 23 47 36 42 52 60 60 59 63 64 69 71 74 76 90 103 106 112 116 125 141 146 150 153 153 154 149 142
247 219 231 246 233 235 241 215 238 253 264 273 275 276 285 294 309 311 308 322 321 337 349 355 4 11 22 35 42 46 65 72 65 59 69 71 71 79 91 94 94 96 101 103 107 116 118 119 123 128 132 135 137 140
240 205 227 240 258 258 269 281 280 280 277 276 279 267 270 290 314 296 295 310 315 349 0 5 22 32 36 37 38 47 52 58 71 81 78 81 66 80 99 99 91 88 102 112 118 118 118 120 121 125 129 132 135 134
209 212 216 243 268 289 307 281 272 270 271 261 269 242 266 273 283 294 331 317 324 0 24 17 26 43 47 39 45 38 37 37 54 74 79 80 87 82 76 83 97 106 111 115 117 119 120 121 122 126 131 135 141 147
227 235 236 266 274 279 288 281 271 269 241 250 251 242 239 234 260 282 299 310 292 357 21 24 30 37 50 42 41 40 46 53 71 72 71 72 75 75 78 88 95 99 104 106 107 108 112 118 122 128 134 139 142 145